User: anonymous   Login
Location: Blue Mountain Vista Observatory
(40.6992°N, 75.9422°W)
Time: 21:49:43
(UTC-05:00)
Language:

CZ-4C R/B - Orbit

View from above orbital plane
View from above orbital plane
View from above satellite
View from above satellite

Ground track
Ground track

The orbit data is extracted from the following two-line orbital elements,

1 36416U 10009D   16339.83003780 -.00000067 +00000-0 +20645-4 0  9996
2 36416 063.4423 065.2111 0367863 356.8341 003.0372 13.69505867337595
Epoch (UTC): 04 December 2016 19:55:15
Eccentricity: 0.0367863
inclination: 63.4423°
perigee height: 730 km
apogee height: 1273 km
right ascension of ascending node: 65.2111°
argument of perigee: 356.8341°
revolutions per day: 13.69505867
mean anomaly at epoch: 3.0372°
orbit number at epoch: 33759

The dashed part of the orbit path shows where the satellite is in the earth's shadow,  

DLR